RH
90 89 87 88 88 84 95 93 99 98 99 97 92 89 98 87 94 51 58 61 61 91 84 77 76 74 62 70 84 68 75 78 88 86 81 86 78 66 67 63 73 77 85 83 81 90 90 53 60 65 65 61 66 67
90 93 90 88 88 86 96 98 100 99 97 98 91 89 96 98 78 49 62 57 54 82 82 70 72 73 73 71 77 79 79 84 89 90 85 81 75 76 74 80 59 76 70 75 72 75 57 52 64 67 68 73 74 74
93 95 92 90 90 88 90 98 99 99 99 94 88 94 87 91 63 54 57 53 58 84 78 77 76 67 68 68 64 84 83 74 78 84 90 88 80 85 82 84 71 67 64 79 68 63 57 74 76 74 72 74 71 73
96 96 95 92 91 90 83 97 99 95 93 91 95 95 97 87 61 54 51 56 52 79 90 86 66 70 69 65 61 63 71 66 74 88 90 85 84 76 83 77 77 74 66 66 67 62 69 80 79 76 74 73 75 73
98 99 94 93 92 93 82 97 100 90 92 99 89 84 84 70 59 52 58 62 62 67 95 91 72 67 65 65 61 58 60 70 81 89 96 91 86 81 76 71 80 70 71 74 73 72 70 70 76 76 78 79 77 81
99 98 94 95 92 95 76 94 99 86 93 94 88 82 83 68 56 44 63 52 48 50 90 98 73 72 65 64 64 67 68 80 84 84 86 82 69 88 83 79 56 60 61 60 77 67 76 72 70 72 77 80 79 82
98 95 95 95 94 93 77 100 87 88 95 93 91 89 82 62 56 78 71 58 58 48 89 97 99 82 75 72 78 81 73 86 85 84 81 80 79 90 88 77 54 56 63 69 69 66 74 73 76 74 77 77 76 78
96 96 95 94 96 84 75 100 87 94 96 90 82 78 60 50 54 57 58 52 52 67 89 95 98 91 73 81 90 83 84 87 89 88 81 79 77 80 84 68 58 57 62 61 62 61 65 66 65 69 67 71 83 85
97 95 96 96 90 78 83 98 95 97 96 85 72 74 66 62 68 50 47 52 55 48 93 93 95 96 74 80 78 85 84 88 84 88 83 78 82 88 67 61 64 61 60 61 61 68 71 73 79 80 81 81 82 80
94 91 93 91 79 90 100 94 99 92 81 76 69 70 77 84 71 58 65 70 88 93 90 95 96 97 83 79 78 80 80 92 90 87 81 83 88 70 66 67 64 61 56 54 82 73 75 79 78 79 80 78 84 81
90 87 95 78 100 100 96 98 91 77 75 64 90 98 96 76 68 75 84 71 87 88 95 97 91 95 83 89 86 78 79 79 87 91 92 79 87 67 62 59 56 54 52 53 54 58 64 71 82 81 77 72 73 76
87 86 86 92 100 94 99 94 80 70 64 64 76 83 74 79 84 60 87 77 80 84 91 90 90 92 88 83 90 82 79 81 78 88 81 85 96 80 64 57 55 62 58 60 56 61 63 67 69 78 82 83 82 78
83 84 81 97 98 100 95 84 65 62 56 66 71 81 74 76 50 40 45 78 91 96 97 94 98 94 87 72 71 70 79 84 80 77 79 76 88 63 63 80 66 61 62 64 67 64 66 71 70 76 83 78 79 83
79 88 82 83 87 100 94 77 70 65 52 81 67 47 60 59 71 78 76 84 94 94 86 91 96 92 80 80 70 94 76 77 88 89 87 92 70 68 68 64 68 69 72 74 76 70 75 76 74 70 70 68 77 82
86 88 88 100 100 96 94 75 69 59 61 67 71 43 79 88 99 99 98 94 98 89 91 93 95 88 92 93 89 87 83 99 90 89 87 97 84 76 66 71 75 76 85 83 66 72 71 67 73 74 62 62 69 71
87 92 99 100 100 97 93 73 60 44 80 88 87 84 88 94 98 97 93 87 96 89 94 89 93 92 96 93 93 94 90 94 84 97 95 80 71 66 70 68 64 61 64 67 66 68 69 71 74 73 68 59 55 65
95 100 100 100 100 97 76 56 51 90 90 84 91 87 92 92 96 96 84 85 85 86 87 87 63 69 92 95 92 92 90 86 95 95 96 77 65 65 67 61 56 56 62 61 63 65 72 72 76 83 87 51 55 66
97 100 100 100 98 75 61 60 89 89 96 98 92 97 89 88 83 84 84 83 86 94 90 74 87 82 81 68 87 89 94 96 97 95 92 76 66 61 57 60 52 55 59 60 61 64 67 78 88 82 66 53 60 70
100 100 100 97 71 51 82 82 78 97 100 98 97 97 94 89 85 82 80 78 80 81 83 86 70 81 82 91 89 95 97 96 69 57 63 54 50 54 51 49 51 54 58 60 65 75 77 78 83 82 79 72 79 70
100 100 97 62 39 70 87 94 76 90 95 96 95 98 99 99 95 94 93 94 95 91 68 69 60 67 68 76 94 94 95 82 74 66 62 60 45 46 50 56 57 53 61 68 74 74 78 78 72 71 72 76 78 84
100 99 73 47 75 79 91 94 98 96 96 95 98 97 99 96 97 98 97 98 87 92 79 92 74 68 64 61 55 56 60 62 69 71 68 80 60 62 63 59 58 64 76 77 78 75 75 79 79 80 81 83 83 82
97 76 58 57 86 89 93 90 92 93 92 95 95 94 96 96 97 96 98 94 95 94 95 93 92 89 72 64 62 56 54 55 58 61 62 64 78 76 69 65 70 76 75 75 78 83 80 76 79 82 81 82 79 76
75 50 75 78 83 78 95 93 88 92 76 94 97 89 95 95 96 94 89 96 95 94 90 89 84 75 71 64 54 43 45 50 60 60 58 62 65 67 68 71 70 79 82 80 76 81 88 87 89 93 90 84 86 80
47 88 92 92 86 100 87 96 88 93 94 94 88 90 94 94 94 92 74 94 94 89 89 86 74 86 71 65 82 58 54 57 61 64 69 74 83 79 79 83 84 86 90 97 98 98 97 96 91 89 94 97 92 89
64 91 86 98 93 85 88 94 95 84 91 95 84 86 91 95 90 84 76 88 95 93 94 85 80 89 79 88 77 58 64 70 80 93 78 76 93 93 86 88 86 88 98 95 97 98 97 98 100 99 99 99 97 97
86 94 86 82 90 74 85 84 84 90 92 88 93 95 95 91 69 58 85 90 92 92 92 82 81 88 86 76 87 76 76 80 75 82 74 81 90 100 96 87 88 87 80 89 100 98 97 98 98 99 99 96 95 97
90 94 81 71 74 75 80 86 86 80 74 75 91 94 81 62 64 70 89 89 86 65 44 48 48 58 75 68 70 70 70 70 76 78 73 74 84 98 100 93 96 89 95 98 98 99 100 99 98 98 98 97 96 97
87 82 72 91 91 93 87 90 78 75 91 87 76 76 57 57 61 81 87 73 57 48 50 55 57 63 65 66 62 61 63 74 66 62 59 64 73 78 92 79 81 89 98 94 99 98 98 98 98 97 97 98 97 96
96 90 87 94 91 92 95 84 85 92 78 87 76 84 78 90 90 88 68 58 56 57 59 64 71 67 65 64 65 69 75 80 84 100 100 97 94 79 84 84 90 94 96 94 100 99 99 97 98 97 98 99 97 97
94 94 90 92 89 93 98 98 98 94 84 84 80 92 92 94 76 66 60 60 61 55 58 66 69 68 72 72 76 70 79 86 90 96 100 100 98 94 93 97 100 99 95 100 99 93 94 96 90 90 93 94 95 97
94 92 90 91 97 98 97 94 94 76 94 95 95 91 92 93 71 69 61 63 59 65 69 75 76 77 80 80 83 90 84 84 90 95 99 100 99 93 93 97 99 98 97 96 95 96 95 93 96 96 97 98 97 96
90 93 88 91 97 97 96 96 97 96 96 93 92 94 90 86 63 91 58 64 73 76 73 76 80 80 76 72 72 74 88 86 91 96 100 96 94 92 94 98 98 98 89 91 95 95 95 97 97 98 98 98 99 99
90 92 92 92 94 96 96 89 91 89 91 95 95 99 99 88 50 72 56 55 50 53 63 73 81 77 66 66 70 77 84 90 88 97 99 100 99 96 98 93 97 97 91 92 93 94 95 96 98 98 99 99 99 99
Wind_Speed
35 35 35 34 31 30 30 36 39 26 24 23 21 19 15 20 25 10 4 3 5 3 6 7 5 4 3 2 4 2 3 3 2 1 2 1 2 2 2 4 6 5 4 3 2 1 3 5 3 1 3 4 6 5
34 34 32 32 28 26 27 34 35 5 24 21 20 15 14 23 21 13 6 19 20 7 3 17 19 15 7 2 4 2 3 2 2 3 1 2 1 2 3 3 1 2 4 4 4 4 5 2 10 5 6 5 3 3
33 33 31 28 25 23 27 30 32 24 21 19 18 15 17 20 18 8 17 17 17 4 4 5 4 12 12 9 5 4 1 2 2 2 2 2 2 2 2 2 3 1 1 3 4 1 2 12 7 5 4 3 1 2
33 32 29 26 22 18 24 27 15 24 21 17 17 16 17 17 14 15 15 9 10 4 4 2 2 4 7 6 9 7 6 4 4 2 2 2 2 1 2 2 2 4 3 3 2 1 6 5 5 4 5 4 2 4
32 30 26 24 19 16 21 22 5 27 23 19 18 15 13 16 15 18 14 8 7 6 4 3 3 11 9 8 12 13 9 4 2 3 3 1 0 2 2 2 2 3 5 4 4 3 2 1 3 4 2 2 4 5
30 27 23 20 16 14 21 18 27 31 24 20 19 16 15 17 23 17 3 3 13 10 4 3 1 4 9 12 14 13 8 4 3 3 1 1 1 2 1 2 2 3 3 3 4 3 3 3 3 2 4 5 4 5
27 24 20 18 16 14 12 22 29 27 23 22 18 18 17 23 7 2 3 8 11 6 3 4 2 2 3 3 4 4 7 3 3 1 2 1 1 3 1 2 1 5 6 6 5 3 3 2 2 6 6 8 10 11
23 21 20 18 18 16 13 27 32 29 26 23 21 22 14 10 9 5 12 12 7 7 3 4 2 3 3 2 2 2 2 2 4 1 2 1 2 2 2 4 4 5 7 7 5 3 2 4 5 5 7 8 7 7
22 20 20 20 22 20 17 41 36 32 28 26 25 21 3 2 2 4 9 10 8 3 4 3 4 3 1 2 2 3 2 2 1 1 0 2 0 2 4 2 5 4 4 1 3 4 4 4 7 7 6 7 8 9
20 21 19 19 25 28 49 43 40 33 32 26 27 4 0 1 8 7 0 3 4 3 3 3 1 3 2 2 1 2 2 2 1 2 1 1 2 4 4 6 5 5 4 3 4 6 5 5 6 8 8 8 7 9
23 23 19 13 26 52 49 47 40 37 35 14 3 1 4 6 0 3 2 3 1 3 2 2 3 5 1 3 2 1 2 1 2 1 3 2 2 2 2 5 4 5 5 5 4 4 6 6 6 7 9 13 16 17
28 27 20 16 35 49 49 45 45 26 17 13 13 10 4 2 3 5 1 2 3 4 2 4 3 3 1 1 3 1 2 1 2 1 2 2 2 3 2 1 2 3 5 5 7 7 12 11 13 10 11 13 16 20
31 30 27 30 35 34 48 47 40 21 25 15 4 4 3 3 4 5 5 2 2 4 4 3 3 3 2 2 3 2 3 2 2 2 2 2 4 3 2 3 5 6 7 8 10 13 15 13 15 13 14 18 20 18
32 33 31 33 30 44 49 46 32 21 5 3 4 3 4 2 4 3 3 4 3 5 8 5 3 3 2 2 3 4 2 3 2 1 4 3 5 4 4 3 3 5 6 7 10 14 14 14 16 18 19 21 20 18
32 27 20 43 60 57 49 42 30 9 3 2 3 5 3 2 2 1 1 3 2 5 4 4 3 3 2 3 1 2 2 1 4 4 2 3 4 4 3 3 5 6 4 5 14 12 17 20 17 18 22 23 22 22
30 28 24 59 61 56 43 36 15 1 3 3 4 3 2 4 2 2 4 7 0 4 2 3 4 4 1 4 3 4 5 5 3 3 3 3 3 3 4 4 5 8 10 12 16 18 20 19 18 20 24 23 20 19
32 9 55 62 56 48 42 18 3 3 3 4 2 2 3 3 3 3 3 2 3 2 3 3 4 3 2 3 1 3 4 3 3 3 2 4 4 4 5 6 7 8 10 13 15 19 20 23 23 21 11 21 22 25
9 60 66 61 51 43 16 2 4 3 5 3 3 2 2 3 4 3 3 2 2 2 2 3 4 3 4 4 3 3 3 2 2 2 2 3 4 9 11 10 12 11 13 17 18 20 23 22 15 16 21 23 21 23
46 66 65 55 39 15 4 3 3 4 2 1 1 2 3 2 3 3 3 3 2 3 5 2 5 3 3 3 3 2 2 2 2 2 3 7 12 15 17 16 16 15 17 20 20 16 19 22 21 23 22 22 17 22
66 67 58 43 29 6 5 2 3 4 3 2 2 3 2 2 1 3 3 3 2 2 4 3 3 3 3 2 3 3 2 2 2 2 4 5 13 13 15 15 17 20 22 23 22 20 18 18 19 20 23 21 18 18
63 57 43 22 6 10 4 3 3 2 3 3 2 1 2 2 3 3 3 4 3 1 1 2 2 2 4 6 5 4 3 4 3 4 3 4 15 19 20 24 24 22 15 14 11 14 17 15 21 22 22 21 23 25
36 43 17 8 5 4 4 5 4 4 3 3 2 2 3 2 2 2 3 3 0 2 2 2 2 2 3 3 2 1 1 3 5 5 8 10 4 5 10 16 17 12 14 16 16 15 18 20 22 21 21 23 22 23
39 33 7 5 5 4 2 1 3 2 5 3 1 4 2 2 1 2 2 2 3 2 1 2 2 3 4 2 1 4 4 6 7 8 12 16 19 20 21 21 20 17 12 15 17 18 18 22 21 19 19 20 20 20
31 6 4 3 4 4 4 2 2 3 3 2 3 4 1 1 2 3 1 2 2 0 1 1 3 3 2 1 2 2 6 7 10 16 13 12 11 13 15 18 18 17 17 17 15 14 16 17 19 19 18 19 21 19
6 3 3 3 1 5 5 3 3 4 4 2 5 3 1 2 2 1 2 3 1 1 2 3 3 1 2 1 2 2 5 7 9 6 20 16 14 14 14 15 14 13 9 18 18 18 19 19 18 18 18 18 18 19
6 3 2 3 2 5 4 5 4 5 5 4 4 2 1 2 3 4 3 3 3 3 3 4 3 2 1 2 1 3 8 12 17 12 16 11 19 12 8 7 5 10 17 22 20 19 20 19 19 20 18 18 17 18
4 1 1 2 3 5 5 4 3 4 6 4 4 4 3 3 4 3 2 3 2 4 10 8 4 5 4 2 2 5 10 12 10 14 20 15 9 7 7 7 10 18 21 22 22 20 20 19 19 18 18 19 19 16
3 2 6 3 4 2 7 3 5 4 4 3 5 3 8 8 5 3 3 5 16 14 9 8 9 7 4 4 7 10 11 12 12 9 7 7 7 10 6 17 15 16 18 20 21 21 20 19 20 21 20 20 20 15
3 1 2 5 5 6 6 4 3 1 2 3 4 3 4 2 2 3 6 13 11 9 13 12 6 4 3 6 5 11 7 6 8 5 4 4 6 10 21 21 23 22 20 23 22 19 17 16 16 16 14 12 12 11
3 2 5 5 6 4 2 1 2 1 1 2 2 2 2 2 3 7 11 10 9 10 12 9 5 4 5 9 13 12 6 3 4 6 2 4 9 21 22 25 23 19 18 22 22 21 18 15 15 12 11 10 10 8
1 2 6 5 4 2 1 2 3 3 3 3 3 3 2 1 1 3 5 8 13 15 12 8 4 1 3 6 7 7 6 3 7 12 13 15 17 19 21 18 16 15 18 18 16 16 17 16 15 14 13 11 10 9
4 4 4 5 2 2 3 3 2 3 3 3 3 2 3 3 1 2 8 14 13 11 8 6 1 1 4 7 5 4 4 6 11 12 14 16 18 18 19 13 15 13 18 15 13 13 13 13 13 13 12 12 11 10
3 3 4 5 3 1 1 3 4 2 3 2 3 1 0 2 4 3 5 11 10 7 11 6 2 3 5 4 3 2 4 8 9 9 9 11 12 14 13 9 11 12 16 14 14 14 13 12 12 12 12 11 11 11
Wind_Direction
307 308 309 313 318 324 326 330 328 325 169 162 165 179 186 181 188 179 94 60 103 95 28 15 34 50 46 61 129 217 79 343 55 110 140 293 122 220 100 157 163 160 152 202 135 135 297 322 21 175 160 47 59 30
305 306 305 310 314 319 323 327 338 188 163 160 165 176 175 171 172 172 94 103 97 78 122 83 64 50 48 39 127 55 139 84 169 99 56 92 60 39 152 205 30 167 185 156 145 185 201 54 104 67 61 90 25 339
301 301 303 304 306 316 325 327 337 163 157 154 151 157 162 161 159 150 133 114 85 94 46 37 7 29 46 35 34 115 345 159 71 162 140 144 113 118 152 219 115 319 101 136 139 44 115 107 98 92 97 117 101 21
298 298 298 298 300 307 316 321 312 162 160 156 156 148 155 160 165 154 142 130 110 110 103 9 56 27 13 44 63 64 120 101 103 76 93 126 140 65 217 195 162 198 121 147 91 100 116 103 90 101 86 73 344 306
294 292 289 287 286 293 305 305 230 166 166 161 154 156 164 163 163 155 126 110 119 120 126 132 86 30 39 63 63 66 76 85 60 49 51 159 13 67 328 49 261 189 177 164 216 168 158 129 58 106 55 297 282 289
291 287 280 275 275 279 303 311 167 164 164 160 158 157 161 153 148 141 58 100 129 124 105 94 137 21 32 62 62 46 45 54 79 99 125 32 4 98 127 223 259 108 73 93 157 175 182 242 147 42 310 295 296 310
282 272 263 249 245 257 281 155 159 162 163 157 155 150 157 161 166 121 171 143 140 128 92 107 65 321 332 5 29 26 38 58 82 89 61 120 351 81 111 239 224 128 104 86 76 77 76 104 248 298 296 299 312 308
267 257 249 237 231 241 249 171 161 164 159 156 149 152 136 120 91 69 115 129 140 104 80 102 99 40 347 35 52 354 56 43 17 108 24 66 345 60 265 264 113 103 96 72 64 78 192 300 307 296 293 303 301 291
257 244 226 222 233 248 228 162 160 157 150 147 152 154 135 67 98 149 127 102 86 103 112 96 130 175 286 61 58 25 71 80 296 91 105 88 251 246 247 147 94 73 103 80 7 347 345 321 303 301 294 291 277 290
239 212 212 232 264 198 159 156 157 156 146 144 144 197 165 33 131 146 82 29 23 360 46 94 112 95 108 152 86 108 338 92 97 221 95 110 265 41 42 104 105 83 69 21 20 340 334 322 319 314 310 303 278 287
206 196 198 230 156 148 153 156 154 144 138 145 129 119 146 126 42 36 51 77 332 44 37 154 118 125 310 128 117 162 147 119 154 221 133 202 174 158 5 72 56 41 22 351 334 302 295 276 285 304 313 318 316 308
193 189 186 201 161 153 155 152 147 143 166 163 128 116 112 38 37 86 326 337 63 171 129 109 128 127 70 60 98 271 115 184 186 169 158 220 155 172 152 53 349 336 326 317 307 297 298 301 299 294 290 288 291 296
188 188 183 173 150 152 158 155 152 155 137 125 86 82 109 308 45 149 180 261 114 171 166 136 98 118 72 66 95 127 164 145 151 202 220 221 164 176 202 254 286 302 310 300 299 303 307 298 305 301 292 300 300 297
190 190 190 196 199 172 159 159 166 164 135 111 131 146 159 251 244 188 165 146 174 121 125 113 90 107 124 106 138 94 173 102 34 306 234 215 185 198 239 258 293 302 306 296 289 302 303 303 299 310 308 310 305 300
188 192 208 172 157 159 161 164 168 161 88 118 98 187 185 139 49 316 93 86 62 126 107 99 71 92 81 98 160 81 128 291 195 225 221 222 206 219 263 276 287 295 289 295 309 303 304 308 301 303 311 316 314 313
185 181 183 155 154 156 156 158 162 114 61 76 63 88 113 75 343 36 84 117 326 128 92 63 100 71 62 132 81 202 124 211 241 211 213 185 222 241 259 272 291 304 305 301 304 302 299 298 292 297 306 306 310 313
184 213 159 151 149 148 150 143 138 57 87 54 1 8 104 86 114 159 127 155 135 77 116 111 84 180 96 58 195 181 194 216 204 228 215 198 227 253 257 267 275 283 290 298 304 313 308 312 306 297 283 296 310 313
200 148 149 146 142 141 145 93 96 87 74 24 77 330 49 46 117 97 104 88 82 110 103 161 124 98 157 154 244 233 221 244 211 195 224 256 261 265 255 251 262 268 281 290 295 304 312 310 294 282 279 288 299 312
155 147 147 145 145 134 108 45 44 93 81 109 52 25 58 59 38 65 74 62 77 106 107 49 82 146 207 210 187 231 235 188 180 266 271 284 286 279 270 260 259 269 283 293 296 292 299 297 288 289 285 286 278 294
148 147 145 148 149 98 88 45 77 91 120 149 59 46 72 76 85 63 45 27 54 62 50 75 160 188 160 203 180 152 166 149 112 325 299 299 314 314 297 284 279 286 292 296 296 302 300 301 305 305 300 291 275 279
141 148 149 145 76 66 87 123 69 130 120 86 156 103 79 27 39 31 25 347 58 105 95 207 147 141 112 115 118 123 134 156 191 198 248 294 307 311 304 303 300 299 287 292 291 291 298 291 297 306 306 302 298 295
144 149 137 95 85 76 80 21 119 122 80 121 109 70 83 74 39 358 294 51 143 234 185 151 188 148 108 102 103 123 341 312 307 305 300 298 290 304 302 300 301 289 288 288 289 286 291 302 306 308 312 314 317 308
138 135 92 78 86 56 104 298 98 31 112 149 99 83 47 60 278 312 47 203 245 248 88 107 132 109 108 107 46 54 19 337 320 317 317 315 309 306 303 303 311 299 303 301 315 310 306 312 312 312 319 322 318 316
131 69 87 93 91 119 129 65 87 94 106 90 83 103 94 146 335 47 191 253 247 37 94 195 120 65 54 51 38 35 25 345 314 319 328 314 304 310 315 314 320 325 328 327 339 342 335 324 322 321 321 323 325 321
98 21 106 79 102 117 102 110 90 79 99 128 109 93 102 61 82 104 218 267 268 224 204 122 101 110 138 228 301 358 23 3 350 314 314 318 324 328 327 329 335 339 345 357 339 328 320 319 319 317 318 319 315 316
79 350 73 143 128 105 161 114 141 140 122 89 72 108 100 106 107 218 227 212 205 179 168 165 159 121 338 200 223 337 355 337 328 312 315 327 324 312 310 326 327 331 325 330 321 315 312 313 315 313 313 318 321 325
116 206 55 37 100 119 99 68 93 94 86 113 153 146 132 121 223 247 267 232 151 151 149 145 143 143 160 158 349 345 330 327 319 302 308 322 334 340 324 5 337 317 328 326 323 319 305 306 308 306 304 305 314 331
114 156 129 191 84 2 117 100 75 92 122 143 130 148 149 174 196 211 191 129 126 130 135 128 120 108 77 43 3 344 335 327 337 345 355 0 353 337 297 323 333 337 330 334 329 323 318 313 307 306 306 301 313 331
78 44 112 69 80 48 49 81 110 125 124 137 117 158 195 220 197 142 139 145 141 147 139 143 134 83 64 20 13 349 338 351 31 26 351 306 318 332 345 345 339 338 340 338 335 335 330 324 322 316 313 319 323 329
44 354 85 51 66 67 31 12 133 212 78 93 91 85 55 31 85 120 147 161 170 167 149 132 111 55 23 353 334 354 1 8 32 28 235 270 290 325 336 340 342 343 344 337 338 347 354 352 356 3 7 17 24 28
129 89 73 55 79 36 328 324 348 57 45 46 359 97 134 215 127 173 182 171 158 153 146 128 99 25 289 315 321 323 333 320 318 327 324 316 324 330 332 339 348 345 344 341 346 353 357 6 11 16 21 25 22 14
31 47 114 99 99 300 26 56 61 67 10 44 5 19 19 51 98 276 185 172 163 163 173 170 167 342 321 323 332 318 301 309 319 330 337 338 335 331 329 334 344 343 350 352 355 1 7 11 15 18 20 19 17 15
70 45 77 104 98 98 267 91 36 70 37 52 19 5 265 171 180 248 190 196 205 215 207 191 237 315 328 344 10 22 351 336 340 336 340 340 339 343 341 357 356 2 6 12 20 22 24 26 26 22 20 20 18 16